Tracking 29606 objects as of 19-Sep-2024
HD Live streaming from Space Station
objects crossing your sky now

COSMOS 1275 DEB

Track COSMOS 1275 DEB now!
10-day predictions


NORAD ID: 13021
Int'l Code: 1981-053ET
Perigee: 874.0 km
Apogee: 905.6 km
Inclination: 83.1 °
Period: 102.6 minutes
Semi major axis: 7260 km
RCS: 0.0839 m2 (small)
Launch date: June 4, 1981
Source: Commonwealth of Independent States (former USSR) (CIS)
Launch site: PLESETSK MISSILE AND SPACE COMPLEX (PKMTR)

Note: This is SATELLITE DEBRIS
Your satellite tracking list
Your tracking list is empty




NASA's NSSDC Master Catalog

Two Line Element Set (TLE):
1 13021U 81053ET  24262.49020581  .00003483  00000-0  22210-2 0  9996
2 13021  83.1448  50.2370 0021773 267.9315 157.1838 14.03218527170270
Source of the keplerian elements: AFSPC